Location: *
(2.5500°S, 65.9667°W)
Time: 04:02:20
(UTC+00:00)

Okean O Rocket - Pass Details

Date: 05 June 2022
Orbit: 623 x 643 km, 98.2° (Epoch: 04 July)

Event Time Altitude Azimuth Distance (km) Brightness Sun altitude
Exits shadow 00:35:20 12° 229° (SW) 1,872 4.2 -31.5°
Maximum altitude 00:37:13 15° 257° (WSW) 1,685 4.3 -32.0°
Drops below altitude 10° 00:39:40 10° 292° (WNW) 1,987 5.0 -32.5°
Sets 00:42:42 0° 315° (NW) 2,888 5.9 -33.2°
